Zurück zum Katalog

FENGYUN 1C DEB

LostSSO
NORAD 39536·DEBRIS·🇨🇳 China

Gestartet May 10, 1999 von Taiyuan Satellite Launch Center

Loading…

Nächste Überflüge (nächste 24 Stunden)

TLE

VeraltetSource: Space-Track

Epoche: Jul 14, 2026, 08:23 UTC

1 39536U 99025EWD 26195.34948763  .00000475  00000-0  47907-3 0  9994
2 39536  99.7733 243.9331 0241692  69.5215 293.1697 13.70343794646894

Verfolge FENGYUN 1C DEB in Echtzeit mit AllMySat

Download on the App Store